Weather History for Cut Bank, MT

Change the Weather History Date:

Tuesday, December 18, 2012

  Actual Average Record
Temperature  
Mean Temperature 20 °F 22 °F  
Max Temperature 29 °F 32 °F 59 °F (1913)
Min Temperature 10 °F 11 °F -46 °F (1924)
Degree Days  
Heating Degree Days 45 43  
Month to date heating degree days 674 758  
Since 1 July heating degree days 2814 3021  
Cooling Degree Days 0 0  
Month to date cooling degree days 0 0  
Year to date cooling degree days 210 162  
Moisture  
Dew Point 10 °F    
Average Humidity 56    
Maximum Humidity 73    
Minimum Humidity 39    
Precipitation  
Precipitation 0.00 in 0.00 in 0.20 in (1971)
Month to date precipitation 0.18 0.12  
Year to date precipitation 9.03 10.80  
Snow  
Snow 0.00 in - - ()
Snow Depth 0.00 in    
Sea Level Pressure  
Sea Level Pressure 29.71 in    
Wind  
Wind Speed 21 mph (West)    
Max Wind Speed 32 mph    
Max Gust Speed 41 mph    
Visibility 10 miles    
Events      
T = Trace of Precipitation, MM = Missing Value Source: NWS Daily Summary

Daily Weather History Graph

Daily Weather History Graph

Search for Another Location

Airport:

Trip Planner

Search our weather history database for the weather conditions in past years. The results will help you decide how hot, cold, wet, or windy it might be!

Date:

Astronomy

Dec. 18, 2012 Rise Set
Actual Time 8:17 AM MST 4:35 PM MST
Civil Twilight 7:40 AM MST 5:12 PM MST
Nautical Twilight 7:00 AM MST 5:52 PM MST
Astronomical Twilight 6:22 AM MST 6:30 PM MST
Moon 11:32 AM MST (12/18) 11:35 PM MST (12/18)
Length of Visible Light 9h 31m
Length of Day
8h 17m
Waxing Crescent, 35% of the Moon is Illuminated
Dec 18
Waxing Crescent
Dec 19
First Quarter
Dec 28
Full
Jan 4
Last Quarter
Jan 11
New

Hourly Weather History & Observations

Time (MST) Temp. Windchill Dew Point Humidity Pressure Visibility Wind Dir Wind Speed Gust Speed Precip Events Conditions
12:56 AM 28.0 °F 12.8 °F 18.0 °F 66% 29.45 in 10.0 mi WSW 27.6 mph 35.7 mph N/A   Clear
1:56 AM 27.0 °F 9.8 °F 16.0 °F 63% 29.47 in 10.0 mi WSW 34.5 mph 40.3 mph N/A   Clear
2:56 AM 27.0 °F 11.3 °F 16.0 °F 63% 29.52 in 10.0 mi West 27.6 mph 36.8 mph N/A   Clear
3:56 AM 26.1 °F 10.4 °F 15.1 °F 63% 29.54 in 10.0 mi WSW 26.5 mph 33.4 mph N/A   Clear
4:56 AM 25.0 °F 8.9 °F 15.1 °F 66% 29.57 in 10.0 mi WSW 26.5 mph 33.4 mph N/A   Clear
5:56 AM 25.0 °F 9.9 °F 12.9 °F 60% 29.59 in 10.0 mi West 23.0 mph 28.8 mph N/A   Clear
6:56 AM 23.0 °F 8.0 °F 12.9 °F 65% 29.62 in 10.0 mi West 20.7 mph - N/A   Clear
7:56 AM 23.0 °F 6.9 °F 12.0 °F 63% 29.65 in 10.0 mi West 24.2 mph 31.1 mph N/A   Clear
8:56 AM 24.1 °F 7.7 °F 12.0 °F 60% 29.67 in 10.0 mi West 26.5 mph 33.4 mph N/A   Clear
9:56 AM 26.1 °F 10.7 °F 12.0 °F 55% 29.69 in 10.0 mi West 25.3 mph 32.2 mph N/A   Clear
10:56 AM 26.1 °F 9.8 °F 10.0 °F 51% 29.71 in 10.0 mi West 28.8 mph 34.5 mph N/A   Clear
11:56 AM 28.0 °F 12.8 °F 10.0 °F 47% 29.71 in 10.0 mi West 27.6 mph 34.5 mph N/A   Partly Cloudy
12:56 PM 28.0 °F 13.3 °F 7.0 °F 41% 29.72 in 10.0 mi West 25.3 mph 33.4 mph N/A   Overcast
1:56 PM 27.0 °F 11.9 °F 7.0 °F 43% 29.73 in 10.0 mi West 25.3 mph 32.2 mph N/A   Overcast
2:56 PM 27.0 °F 12.8 °F 7.0 °F 43% 29.76 in 10.0 mi West 21.9 mph 27.6 mph N/A   Overcast
3:56 PM 25.0 °F 13.6 °F 6.1 °F 45% 29.78 in 10.0 mi West 12.7 mph - N/A   Overcast
4:56 PM 25.0 °F 13.6 °F 7.0 °F 46% 29.81 in 10.0 mi West 12.7 mph - N/A   Overcast
5:56 PM 23.0 °F 10.1 °F 7.0 °F 50% 29.83 in 10.0 mi West 15.0 mph - N/A   Overcast
6:56 PM 19.9 °F 7.9 °F 6.1 °F 55% 29.85 in 10.0 mi West 11.5 mph - N/A   Overcast
7:56 PM 15.1 °F 1.8 °F 5.0 °F 64% 29.88 in 10.0 mi WNW 11.5 mph - N/A   Clear
8:56 PM 12.9 °F -0.9 °F 3.9 °F 67% 29.89 in 10.0 mi WNW 11.5 mph - N/A   Clear
9:56 PM 12.9 °F -0.9 °F 5.0 °F 71% 29.88 in 10.0 mi WNW 11.5 mph - N/A   Clear
10:56 PM 10.0 °F -5.2 °F 3.9 °F 76% 29.90 in 10.0 mi WNW 12.7 mph - N/A   Clear
11:56 PM 12.9 °F -1.6 °F 6.1 °F 74% 29.90 in 10.0 mi WNW 12.7 mph - N/A   Clear